Location: Bergnerzell
(49.1816°N, 10.2565°E)
Time: 05:13:02
(UTC+00:00)

IDEFIX/ARIANE 42P - Pass Details

Date: 17 August 2024
Orbit: 782 x 799 km, 98.5° (Epoch: 08 September)

Event Time Altitude Azimuth Distance (km) Brightness Sun altitude
Rises 00:53:45 0° 17° (NNE) 3,286 7.2 -24.4°
Reaches altitude 10° 00:56:07 10° 20° (NNE) 2,354 6.1 -24.2°
Maximum altitude 01:01:16 63° 102° (ESE) 880 2.8 -23.9°
Enters shadow 01:02:25 50° 154° (SSE) 1,005 2.8 -23.8°
